EW1867 Weather Reports


Display with metric or nautical units.
time (UTC)temp
F
wind
direction
speed
MPH
gust
MPH
rain 1hr
in
rain 24hr
in
rain mn
in
humidity
%
barometer
mb
20260507003537 74 273 1.0 5.0 0.00 0.00 0.00 63 1016.0
20260507002637 74 240 1.0 3.0 0.00 0.00 0.00 62 1016.0
20260507001737 74 314 2.0 4.0 0.00 0.00 0.00 62 1016.0
20260507000837 75 359 1.0 5.0 0.00 0.00 0.00 60 1016.1
20260506235937 76 248 1.0 4.0 0.00 0.00 0.00 61 1016.1
20260506235037 75 287 1.0 4.0 0.00 0.00 0.00 62 1016.2
20260506233237 76 266 1.0 5.0 0.00 0.00 0.00 60 1016.2
20260506232337 75 307 2.0 6.0 0.00 0.00 0.00 61 1016.4
20260506231437 75 328 2.0 5.0 0.00 0.00 0.00 60 1016.4
20260506230538 75 264 1.0 5.0 0.00 0.00 0.00 60 1016.6
20260506225637 75 296 2.0 4.0 0.00 0.00 0.00 60 1016.7
20260506224737 75 294 2.0 6.0 0.00 0.00 0.00 62 1016.9
20260506222037 74 333 1.0 4.0 0.00 0.00 0.00 61 1017.3
20260506221137 74 342 2.0 6.0 0.00 0.00 0.00 62 1017.5
20260506220237 74 328 1.0 7.0 0.00 0.00 0.00 62 1017.8
20260506214437 73 319 2.0 5.0 0.00 0.00 0.00 62 1017.9
20260506213537 74 301 2.0 5.0 0.00 0.00 0.00 61 1018.0
20260506205937 72 292 1.0 6.0 0.00 0.00 0.00 63 1018.4
20260506204137 72 319 1.0 6.0 0.00 0.00 0.00 63 1018.6
20260506203237 72 292 1.0 6.0 0.00 0.00 0.00 63 1018.7
20260506202337 72 316 1.0 5.0 0.00 0.00 0.00 63 1018.8
20260506201437 72 247 1.0 2.0 0.00 0.00 0.00 63 1018.8
20260506200537 71 311 1.0 4.0 0.00 0.00 0.00 63 1018.9
20260506195637 71 319 2.0 5.0 0.00 0.00 0.00 63 1018.8
20260506194737 72 247 1.0 4.0 0.00 0.00 0.00 63 1018.9
20260506193837 72 0 0.0 2.0 0.00 0.00 0.00 63 1019.0
20260506192937 72 277 0.0 2.0 0.00 0.00 0.00 63 1019.1
20260506191137 71 286 1.0 5.0 0.00 0.00 0.00 63 1019.5
20260506185337 71 268 1.0 3.0 0.00 0.00 0.00 64 1019.4
20260506184437 70 296 1.0 4.0 0.00 0.00 0.00 65 1019.5
20260506183537 71 0 0.0 2.0 0.00 0.00 0.00 67 1019.6
20260506182637 70 353 0.0 3.0 0.00 0.00 0.00 66 1019.7
20260506181737 70 219 1.0 3.0 0.00 0.00 0.00 65 1019.7
20260506180837 70 0 0.0 2.0 0.00 0.00 0.00 67 1019.7
20260506175937 68 185 1.0 2.0 0.00 0.00 0.00 69 1019.8
20260506175037 67 104 1.0 3.0 0.00 0.00 0.00 70 1019.6
20260506174137 67 0 0.0 2.0 0.00 0.00 0.00 69 1019.7
20260506173237 66 0 0.0 2.0 0.00 0.00 0.00 71 1019.7
20260506172337 65 0 0.0 1.0 0.00 0.00 0.00 72 1019.7
20260506170537 65 0 0.0 1.0 0.00 0.00 0.00 72 1019.7
20260506165637 64 0 0.0 1.0 0.00 0.00 0.00 75 1019.6
20260506164738 64 0 0.0 2.0 0.00 0.00 0.00 76 1019.5
20260506163837 63 0 0.0 1.0 0.00 0.00 0.00 77 1019.4
20260506162937 63 0 0.0 1.0 0.00 0.00 0.00 77 1019.6
20260506162037 62 0 0.0 2.0 0.00 0.00 0.00 78 1019.5
20260506161137 62 137 1.0 2.0 0.00 0.00 0.00 79 1019.5
20260506160237 61 200 0.0 2.0 0.00 0.00 0.00 79 1019.4
20260506155337 61 0 0.0 2.0 0.00 0.00 0.00 79 1019.5
20260506154437 61 0 0.0 1.0 0.00 0.00 0.00 78 1019.5
20260506153538 61 0 0.0 1.0 0.00 0.00 0.00 80 1019.6
20260506151737 60 119 0.0 2.0 0.00 0.00 0.00 80 1019.4
20260506150837 60 0 0.0 2.0 0.00 0.00 0.00 80 1019.3
20260506145937 59 0 0.0 2.0 0.00 0.00 0.00 81 1019.4
20260506144137 59 120 0.0 3.0 0.00 0.00 0.00 82 1019.4
20260506142337 58 0 0.0 2.0 0.00 0.00 0.00 83 1019.3
20260506141437 58 0 0.0 2.0 0.00 0.00 0.00 83 1019.2
20260506140537 58 113 1.0 3.0 0.00 0.00 0.00 84 1019.0
20260506134737 58 119 0.0 2.0 0.00 0.00 0.00 84 1018.9
20260506133837 58 105 0.0 3.0 0.00 0.00 0.00 84 1018.9
20260506132037 58 0 0.0 2.0 0.00 0.00 0.00 84 1018.7
20260506131138 58 0 0.0 3.0 0.00 0.00 0.00 84 1018.7
20260506125337 58 104 1.0 3.0 0.00 0.00 0.00 84 1018.7
20260506123537 58 99 0.0 4.0 0.00 0.00 0.00 84 1018.5
20260506122637 58 0 0.0 3.0 0.00 0.00 0.00 84 1018.4
20260506120837 58 102 1.0 5.0 0.00 0.00 0.00 84 1018.4
20260506115937 58 101 1.0 5.0 0.00 0.00 0.00 84 1018.3
20260506115037 58 103 1.0 4.0 0.00 0.00 0.00 84 1018.4
20260506114137 58 108 1.0 4.0 0.00 0.00 0.00 84 1018.4
20260506113237 58 101 1.0 2.0 0.00 0.00 0.00 84 1018.3
20260506112337 58 0 0.0 2.0 0.00 0.00 0.00 84 1018.3
20260506104737 58 0 0.0 2.0 0.00 0.00 0.00 82 1018.1
20260506102937 58 0 0.0 2.0 0.00 0.00 0.00 82 1017.9
20260506102037 58 111 0.0 2.0 0.00 0.00 0.00 82 1017.7
20260506101137 58 103 0.0 3.0 0.00 0.00 0.00 82 1017.7
20260506095337 59 106 0.0 3.0 0.00 0.00 0.00 81 1017.5
20260506094437 59 0 0.0 2.0 0.00 0.00 0.00 81 1017.6
20260506093537 59 0 0.0 3.0 0.00 0.00 0.00 81 1017.6
20260506092637 59 125 0.0 2.0 0.00 0.00 0.00 81 1017.7
20260506091737 59 117 0.0 3.0 0.00 0.00 0.00 80 1017.6
20260506090838 59 0 0.0 2.0 0.00 0.00 0.00 80 1017.6
20260506085937 59 112 1.0 2.0 0.00 0.00 0.00 80 1017.6
20260506085037 59 105 0.0 2.0 0.00 0.00 0.00 80 1017.7
20260506084137 60 110 0.0 2.0 0.00 0.00 0.00 80 1017.6
20260506083237 60 106 1.0 2.0 0.00 0.00 0.00 80 1017.7
20260506082337 60 109 0.0 4.0 0.00 0.00 0.00 80 1017.7
20260506081437 60 0 0.0 1.0 0.00 0.00 0.00 81 1017.6
20260506080537 60 0 0.0 1.0 0.00 0.00 0.00 80 1017.6
20260506072037 60 0 0.0 0.0 0.00 0.00 0.00 80 1017.2
20260506070238 60 0 0.0 0.0 0.00 0.01 0.00 80 1017.1
20260506061737 61 0 0.0 0.0 0.00 0.03 0.01 80 1016.6
20260506060837 61 0 0.0 1.0 0.00 0.04 0.01 80 1016.6
20260506050537 62 0 0.0 2.0 0.00 0.14 0.01 79 1016.1
20260506044737 62 199 0.0 3.0 0.00 0.14 0.01 78 1016.0
20260506043837 62 168 0.0 3.0 0.00 0.14 0.01 78 1016.0
20260506042037 62 217 1.0 3.0 0.00 0.18 0.01 77 1015.6
20260506041138 63 220 1.0 4.0 0.00 0.22 0.01 77 1015.4
20260506040237 63 172 0.0 4.0 0.00 0.28 0.01 78 1015.3
20260506035337 63 0 0.0 4.0 0.00 0.32 0.01 78 1015.3
20260506034437 63 0 0.0 3.0 0.00 0.35 0.01 78 1015.4
20260506033537 63 107 1.0 2.0 0.00 0.37 0.01 77 1015.1
20260506032637 64 108 1.0 2.0 0.00 0.39 0.01 77 1015.1
20260506031737 64 106 1.0 6.0 0.00 0.43 0.01 76 1015.0
20260506030837 64 105 1.0 6.0 0.00 0.45 0.01 76 1014.8
20260506025937 64 127 1.0 2.0 0.00 0.47 0.01 76 1014.6
20260506025038 64 102 1.0 3.0 0.00 0.49 0.01 76 1014.6
20260506024137 64 102 0.0 3.0 0.00 0.50 0.01 76 1014.6
20260506023237 64 102 2.0 4.0 0.00 0.51 0.01 75 1014.4
20260506022337 64 106 2.0 7.0 0.00 0.52 0.01 75 1014.4
20260506021437 64 108 1.0 5.0 0.00 0.53 0.01 75 1014.3
20260506020538 64 108 1.0 6.0 0.00 0.53 0.01 74 1014.2
20260506014737 65 97 1.0 5.0 0.00 0.58 0.01 74 1014.2
20260506013837 65 100 2.0 5.0 0.00 0.59 0.01 73 1014.1
20260506012938 65 99 2.0 6.0 0.00 0.61 0.01 72 1014.0
20260506012037 65 100 3.0 10.0 0.00 0.62 0.01 72 1014.0
20260506011137 65 101 3.0 10.0 0.00 0.63 0.01 71 1014.0
20260506010237 66 91 2.0 6.0 0.00 0.63 0.01 70 1013.9
20260506005337 66 99 2.0 5.0 0.00 0.63 0.01 70 1013.8
20260506004437 67 105 1.0 4.0 0.00 0.64 0.01 69 1013.9